Location: Unspecified
(0.0000°N, 0.0000°E)
Time: 06:26:44
(UTC+00:00)

Transit 2A - Pass Details

Date: 27 May 2019
Orbit: 598 x 960 km, 66.7° (Epoch: 15 September)

Event Time Altitude Azimuth Distance (km) Brightness Sun altitude
Rises 04:39:20 0° 191° (S) 3,261 - -18.1°
Exits shadow 04:40:58 - 188° (S) 2,653 8.5 -17.7°
Reaches altitude 10° 04:41:42 10° 186° (S) 2,386 8.3 -17.5°
Maximum altitude 04:47:07 56° 109° (ESE) 1,024 6.9 -16.3°
Drops below altitude 10° 04:53:01 10° 32° (NNE) 2,596 9.6 -14.9°
Sets 04:55:40 0° 28° (NNE) 3,571 10.3 -14.3°
